The following orbital elements are taken from MPC 75708:
Epoch 2006 July 4.0 TT = JDT 2453920.5
T 2006 July 9.6824 TT MPC
q 5.437591 (2000.0) P Q
n 0.0641061 Peri. 82.7037 -0.4363992 -0.8961751
a 6.183055 Node 33.5405 +0.7576373 -0.4140653
e 0.120566 Incl. 8.3420 +0.4853262 -0.1594366
P 15.4
From 60 observations 2008 Feb. 8-2009 June 13, mean residual 0".5.